Location: Newark
(40.7066°N, 111.8219°W)
Time: 00:46:55
(UTC+00:00)

Transit 2A Rocket - Pass Details

Date: 23 November 2019
Orbit: 594 x 909 km, 66.7° (Epoch: 14 December)

Event Time Altitude Azimuth Distance (km) Brightness Sun altitude
Rises 13:28:12 0° 324° (NW) 2,859 - -10.5°
Exits shadow 13:30:25 10° 318° (NW) 1,988 6.6 -10.1°
Reaches altitude 10° 13:30:28 10° 318° (NW) 1,972 6.6 -10.1°
Maximum altitude 13:34:40 45° 246° (WSW) 869 5.0 -9.3°
Drops below altitude 10° 13:39:08 10° 174° (S) 2,088 7.6 -8.5°
Sets 13:41:35 0° 168° (SSE) 3,048 8.6 -8.1°
